AW706 Weather Reports


Display with metric or nautical units.
time (UTC)temp
F
wind
direction
speed
MPH
gust
MPH
rain 1hr
in
rain 24hr
in
rain mn
in
humidity
%
barometer
mb
20260506132034 61 139 3.0 8.0 0.00 0.00 0.00 82 1007.0
20260506131535 61 146 4.0 9.0 0.00 0.00 0.00 83 1006.9
20260506131035 60 155 5.0 9.0 0.00 0.00 0.00 84 1006.8
20260506130532 60 164 4.0 9.0 0.00 0.00 0.00 85 1006.8
20260506130032 60 168 4.0 9.0 0.00 0.00 0.00 85 1006.8
20260506125532 60 173 4.0 9.0 0.00 0.00 0.00 85 1006.8
20260506125032 60 196 5.0 9.0 0.00 0.00 0.00 85 1006.8
20260506124533 60 137 4.0 9.0 0.00 0.00 0.00 85 1007.0
20260506124032 60 179 4.0 10.0 0.00 0.00 0.00 84 1006.9
20260506123532 60 192 4.0 10.0 0.00 0.00 0.00 85 1006.8
20260506123519 60 171 4.0 7.0 0.00 0.00 0.00 85 1007.1
20260506122533 60 166 4.0 6.0 0.00 0.00 0.00 85 1007.1
20260506122255 60 169 4.0 7.0 0.00 0.00 0.00 86 1007.2
20260506121530 59 190 4.0 7.0 0.00 0.00 0.00 86 1007.2
20260506121029 59 208 5.0 12.0 0.00 0.00 0.00 87 1007.2
20260506120530 59 292 6.0 12.0 0.00 0.00 0.00 87 1007.3
20260506120030 59 179 6.0 10.0 0.00 0.00 0.00 87 1007.2
20260506115530 59 171 5.0 10.0 0.00 0.00 0.00 87 1007.2
20260506115030 59 148 5.0 11.0 0.00 0.00 0.00 88 1007.2
20260506114530 58 173 5.0 11.0 0.00 0.00 0.00 89 1007.2
20260506114030 58 194 5.0 9.0 0.00 0.00 0.00 89 1007.2
20260506113530 58 182 5.0 9.0 0.00 0.00 0.00 90 1007.1
20260506113030 58 182 4.0 9.0 0.00 0.00 0.00 90 1007.1
20260506112530 57 167 4.0 9.0 0.00 0.00 0.00 91 1007.0
20260506112031 57 180 5.0 10.0 0.00 0.00 0.00 92 1006.9
20260506111528 57 162 5.0 11.0 0.00 0.00 0.00 92 1007.0
20260506111249 57 188 6.0 11.0 0.00 0.00 0.00 93 1007.1
20260506110745 56 191 5.0 10.0 0.00 0.00 0.00 93 1007.2
20260506110025 56 165 4.0 10.0 0.00 0.00 0.00 93 1007.2
20260506105525 56 190 4.0 10.0 0.00 0.00 0.00 94 1007.2
20260506105024 56 190 4.0 11.0 0.00 0.00 0.00 94 1007.1
20260506104525 56 180 5.0 11.0 0.00 0.00 0.00 94 1007.0
20260506104025 56 158 4.0 9.0 0.00 0.00 0.00 94 1006.9
20260506103525 56 162 4.0 8.0 0.00 0.00 0.00 94 1007.0
20260506103246 56 181 4.0 10.0 0.00 0.00 0.00 94 1007.0
20260506102525 56 172 4.0 10.0 0.00 0.00 0.00 94 1006.9
20260506102025 56 178 4.0 9.0 0.00 0.00 0.00 94 1007.0
20260506101525 56 173 4.0 9.0 0.00 0.00 0.00 94 1006.9
20260506101025 56 157 4.0 7.0 0.00 0.00 0.00 94 1006.9
20260506100525 56 171 4.0 10.0 0.00 0.00 0.00 94 1007.0
20260506100026 56 107 4.0 10.0 0.00 0.00 0.00 94 1007.0
20260506095525 56 176 4.0 9.0 0.00 0.00 0.00 94 1006.9
20260506095019 56 154 4.0 10.0 0.00 0.00 0.00 94 1006.9
20260506094517 56 140 5.0 10.0 0.00 0.00 0.00 93 1006.9
20260506094017 56 176 5.0 10.0 0.00 0.00 0.00 93 1006.9
20260506093517 56 183 4.0 9.0 0.00 0.00 0.00 93 1006.8
20260506093017 56 168 4.0 8.0 0.00 0.00 0.00 93 1006.9
20260506092517 56 175 3.0 8.0 0.00 0.00 0.00 93 1006.9
20260506092017 56 162 3.0 8.0 0.00 0.00 0.00 93 1006.8
20260506091517 56 182 4.0 11.0 0.00 0.00 0.00 93 1006.8
20260506091017 56 179 4.0 11.0 0.00 0.00 0.00 93 1006.9
20260506090517 56 176 3.0 8.0 0.00 0.00 0.00 92 1007.0
20260506090239 56 168 4.0 11.0 0.00 0.00 0.00 92 1007.0
20260506085740 56 178 4.0 11.0 0.00 0.00 0.00 92 1007.1
20260506085017 56 166 3.0 7.0 0.00 0.00 0.00 92 1007.1
20260506084733 56 160 3.0 9.0 0.00 0.00 0.00 92 1007.1
20260506084231 56 134 3.0 9.0 0.00 0.00 0.00 92 1007.1
20260506083512 56 158 3.0 6.0 0.00 0.00 0.00 92 1007.2
20260506083012 56 180 4.0 7.0 0.00 0.00 0.00 92 1007.2
20260506082736 56 130 4.0 7.0 0.00 0.00 0.00 92 1007.3
20260506082012 56 189 4.0 6.0 0.00 0.00 0.00 92 1007.3
20260506081512 56 172 3.0 7.0 0.00 0.00 0.00 92 1007.2
20260506081012 56 79 3.0 7.0 0.00 0.00 0.00 92 1007.3
20260506080512 56 183 3.0 7.0 0.00 0.00 0.00 92 1007.3
20260506073511 56 183 3.0 9.0 0.00 0.00 0.00 91 1007.5
20260506073011 56 211 4.0 11.0 0.00 0.00 0.00 91 1007.5
20260506072511 56 181 5.0 11.0 0.00 0.00 0.00 90 1007.6
20260506072010 56 169 5.0 9.0 0.00 0.00 0.00 91 1007.6
20260506071509 56 111 4.0 10.0 0.00 0.00 0.00 91 1007.6
20260506071010 56 181 4.0 10.0 0.00 0.00 0.00 90 1007.5
20260506070509 56 176 4.0 10.0 0.00 0.00 0.00 90 1007.6
20260506062011 57 185 5.0 9.0 0.00 0.00 0.00 89 1007.5
20260506061511 57 179 5.0 12.0 0.00 0.00 0.00 89 1007.5
20260506061008 57 181 6.0 13.0 0.00 0.00 0.00 88 1007.4
20260506060507 57 187 6.0 13.0 0.00 0.00 0.00 88 1007.4
20260506060240 57 179 5.0 13.0 0.00 0.00 0.00 88 1007.5
20260506051006 58 179 5.0 9.0 0.00 0.00 0.00 85 1007.8
20260506050506 58 140 5.0 10.0 0.00 0.00 0.00 85 1007.8
20260506045006 58 211 5.0 9.0 0.00 0.00 0.00 85 1007.8
20260506044506 58 180 5.0 10.0 0.00 0.00 0.00 84 1007.9
20260506044006 58 186 5.0 10.0 0.00 0.00 0.00 84 1007.9
20260506043505 58 184 5.0 10.0 0.00 0.00 0.00 84 1007.9
20260506043449 58 171 4.0 11.0 0.00 0.00 0.00 84 1007.8
20260506042505 59 161 5.0 11.0 0.00 0.00 0.00 84 1007.8
20260506042004 59 190 5.0 11.0 0.00 0.00 0.00 83 1007.8
20260506041505 59 178 5.0 11.0 0.00 0.00 0.00 83 1007.9
20260506041005 59 167 5.0 9.0 0.00 0.00 0.00 83 1007.9
20260506040506 59 196 5.0 10.0 0.00 0.00 0.00 82 1008.0
20260506040005 59 186 5.0 12.0 0.00 0.00 0.00 82 1008.0
20260506035505 60 22 6.0 12.0 0.00 0.00 0.00 82 1008.0
20260506035006 60 177 6.0 12.0 0.00 0.00 0.00 81 1008.0
20260506034727 60 172 5.0 10.0 0.00 0.00 0.00 81 1007.9
20260506034005 60 220 5.0 11.0 0.00 0.00 0.00 81 1007.8
20260506033506 60 161 5.0 11.0 0.00 0.00 0.00 80 1007.8
20260506033003 61 153 5.0 11.0 0.00 0.00 0.00 80 1007.9
20260506032501 61 197 5.0 11.0 0.00 0.00 0.00 80 1007.8
20260506032003 61 167 4.0 10.0 0.00 0.00 0.00 79 1007.8
20260506031502 61 178 5.0 10.0 0.00 0.00 0.00 79 1007.9
20260506031220 61 165 5.0 11.0 0.00 0.00 0.00 79 1007.8
20260506030501 61 217 6.0 12.0 0.00 0.00 0.00 79 1007.8
20260506030003 61 174 5.0 12.0 0.00 0.00 0.00 79 1007.8
20260506025502 61 180 5.0 10.0 0.00 0.00 0.00 79 1007.9
20260506025003 61 171 4.0 10.0 0.00 0.00 0.00 79 1007.9
20260506024501 61 187 4.0 12.0 0.00 0.00 0.00 79 1007.9
20260506024003 61 195 5.0 12.0 0.00 0.00 0.00 78 1007.9
20260506023502 62 230 4.0 10.0 0.00 0.00 0.00 77 1007.8
20260506023004 62 285 4.0 9.0 0.00 0.00 0.00 77 1007.9
20260506022503 62 191 5.0 12.0 0.00 0.00 0.00 77 1007.9
20260506022002 61 272 5.0 12.0 0.00 0.00 0.00 76 1007.8
20260506021503 61 164 4.0 10.0 0.00 0.00 0.00 76 1007.8
20260506021000 61 156 4.0 9.0 0.00 0.00 0.00 76 1008.0
20260506020456 62 171 4.0 9.0 0.00 0.00 0.00 76 1007.9
20260506015956 62 169 4.0 9.0 0.00 0.00 0.00 75 1007.9
20260506015457 62 158 5.0 9.0 0.00 0.00 0.00 75 1007.8
20260506015221 62 172 5.0 10.0 0.00 0.00 0.00 75 1007.8
20260506014457 62 172 5.0 12.0 0.00 0.00 0.00 75 1007.7
20260506013956 62 163 4.0 12.0 0.00 0.00 0.00 75 1007.6
20260506013457 62 303 5.0 13.0 0.00 0.00 0.00 74 1007.6
20260506012957 62 170 6.0 13.0 0.00 0.00 0.00 74 1007.5
20260506012457 62 165 6.0 12.0 0.00 0.00 0.00 73 1007.5
20260506011957 63 178 6.0 13.0 0.00 0.00 0.00 73 1007.4
20260506011458 63 262 5.0 13.0 0.00 0.00 0.00 72 1007.4
20260506010957 63 171 5.0 9.0 0.00 0.00 0.00 72 1007.3
20260506010457 63 181 5.0 10.0 0.00 0.00 0.00 72 1007.3
20260506005958 63 153 5.0 10.0 0.00 0.00 0.00 72 1007.3
20260506005458 63 165 5.0 10.0 0.00 0.00 0.00 72 1007.1
20260506005222 63 165 4.0 10.0 0.00 0.00 0.00 71 1007.1
20260506004455 64 181 4.0 12.0 0.00 0.00 0.00 70 1007.0
20260506003954 64 181 4.0 12.0 0.00 0.00 0.00 69 1006.9
20260506003455 64 271 4.0 9.0 0.00 0.00 0.00 69 1006.9
20260506002958 64 174 4.0 9.0 0.00 0.00 0.00 68 1006.9
20260506002954 65 146 4.0 9.0 0.00 0.00 0.00 68 1006.9
20260506001955 65 169 4.0 9.0 0.00 0.00 0.00 68 1006.8
20260506001455 65 158 4.0 9.0 0.00 0.00 0.00 68 1006.8
20260506000955 65 174 4.0 12.0 0.00 0.00 0.00 68 1006.7
20260506000455 65 166 4.0 12.0 0.00 0.00 0.00 68 1006.6
20260505235955 65 189 4.0 8.0 0.00 0.00 0.00 67 1006.5
20260505235452 65 161 4.0 8.0 0.00 0.00 0.00 67 1006.6
20260505234952 65 175 3.0 9.0 0.00 0.00 0.00 67 1006.6
20260505234710 65 196 4.0 9.0 0.00 0.00 0.00 67 1006.4
20260505233950 65 181 5.0 10.0 0.00 0.00 0.00 67 1006.3
20260505233449 65 174 5.0 10.0 0.00 0.00 0.00 66 1006.2
20260505232949 65 179 4.0 10.0 0.00 0.00 0.00 66 1006.2
20260505232450 65 172 4.0 10.0 0.00 0.00 0.00 66 1006.1
20260505231950 65 328 3.0 7.0 0.00 0.00 0.00 66 1006.0
20260505231446 65 164 4.0 8.0 0.00 0.00 0.00 66 1006.0
20260505230947 65 169 5.0 11.0 0.00 0.00 0.00 66 1005.9
20260505230447 65 144 5.0 11.0 0.00 0.00 0.00 66 1005.8
20260505225947 65 173 4.0 11.0 0.00 0.00 0.00 65 1005.8
20260505225447 66 171 4.0 8.0 0.00 0.00 0.00 65 1005.7
20260505224947 66 188 4.0 9.0 0.00 0.00 0.00 64 1005.8
20260505224447 66 170 4.0 15.0 0.00 0.00 0.00 63 1005.9
20260505224211 67 194 6.0 18.0 0.00 0.00 0.00 63 1005.9
20260505223448 67 182 6.0 18.0 0.00 0.00 0.00 62 1005.7
20260505222946 67 176 6.0 13.0 0.00 0.00 0.00 61 1005.7
20260505222442 68 182 6.0 13.0 0.00 0.00 0.00 61 1005.6
20260505221442 68 177 6.0 13.0 0.00 0.00 0.00 60 1005.5
20260505220941 68 199 6.0 13.0 0.00 0.00 0.00 60 1005.5
20260505220442 69 183 6.0 13.0 0.00 0.00 0.00 60 1005.6
20260505215943 69 297 6.0 12.0 0.00 0.00 0.00 60 1005.5
20260505215442 69 101 6.0 12.0 0.00 0.00 0.00 59 1005.6
20260505214942 69 271 6.0 13.0 0.00 0.00 0.00 59 1005.7
20260505214442 69 184 6.0 13.0 0.00 0.00 0.00 60 1005.6
20260505213943 69 166 5.0 12.0 0.00 0.00 0.00 60 1005.6
20260505213442 69 180 5.0 10.0 0.00 0.00 0.00 60 1005.5
20260505212942 69 331 5.0 12.0 0.00 0.00 0.00 60 1005.5
20260505212708 68 181 6.0 13.0 0.00 0.00 0.00 61 1005.4
20260505211941 68 118 6.0 13.0 0.00 0.00 0.00 61 1005.3
20260505211439 68 175 6.0 11.0 0.00 0.00 0.00 62 1005.3
20260505210940 68 170 6.0 12.0 0.00 0.00 0.00 62 1005.3
20260505210440 68 184 5.0 12.0 0.00 0.00 0.00 63 1005.3
20260505205939 68 171 5.0 10.0 0.00 0.00 0.00 63 1005.2
20260505205440 68 178 5.0 11.0 0.00 0.00 0.00 63 1005.4
20260505205203 68 191 5.0 11.0 0.00 0.00 0.00 63 1005.4
20260505204439 68 260 5.0 10.0 0.00 0.00 0.00 62 1005.5
20260505203940 68 277 4.0 10.0 0.00 0.00 0.00 62 1005.4
20260505203440 68 172 5.0 10.0 0.00 0.00 0.00 63 1005.4
20260505202940 68 181 6.0 12.0 0.00 0.00 0.00 63 1005.4
20260505202658 68 172 6.0 12.0 0.00 0.00 0.00 63 1005.6
20260505201940 69 182 6.0 12.0 0.00 0.00 0.00 62 1005.6
20260505201440 69 189 5.0 10.0 0.00 0.00 0.00 61 1005.6
20260505200940 70 188 5.0 10.0 0.00 0.00 0.00 60 1005.7
20260505200438 70 163 4.0 10.0 0.00 0.00 0.00 61 1005.6
20260505195938 70 325 4.0 10.0 0.00 0.00 0.00 62 1005.7
20260505195437 71 186 4.0 11.0 0.00 0.00 0.00 61 1005.7
20260505194938 71 199 4.0 11.0 0.00 0.00 0.00 60 1005.8
20260505194438 71 337 3.0 9.0 0.00 0.00 0.00 61 1006.0
20260505193937 70 176 4.0 9.0 0.00 0.00 0.00 59 1005.9
20260505193438 70 155 4.0 9.0 0.00 0.00 0.00 61 1005.9
20260505192939 70 131 4.0 9.0 0.00 0.00 0.00 63 1006.1
20260505192439 69 177 4.0 9.0 0.00 0.00 0.00 62 1006.2
20260505191938 69 164 4.0 9.0 0.00 0.00 0.00 63 1006.3
20260505191438 69 185 4.0 8.0 0.00 0.00 0.00 62 1006.5
20260505190939 69 175 4.0 8.0 0.00 0.00 0.00 63 1006.4
20260505190439 69 170 5.0 11.0 0.00 0.00 0.00 63 1006.5
20260505190158 69 161 5.0 15.0 0.00 0.00 0.00 62 1006.6
20260505185436 69 210 6.0 15.0 0.00 0.00 0.00 63 1006.7
20260505185153 69 221 5.0 11.0 0.00 0.00 0.00 63 1006.7
20260505184433 70 192 4.0 11.0 0.00 0.00 0.00 63 1006.9
20260505184418 70 252 4.0 10.0 0.00 0.00 0.00 61 1007.0
20260505183433 70 166 4.0 10.0 0.00 0.00 0.00 62 1007.0
20260505182933 70 203 4.0 9.0 0.00 0.00 0.00 64 1007.1
20260505182433 70 90 4.0 8.0 0.00 0.00 0.00 64 1007.0
20260505181933 70 284 4.0 8.0 0.00 0.00 0.00 63 1007.1
20260505181433 70 94 3.0 7.0 0.00 0.00 0.00 63 1007.0
20260505180933 70 123 3.0 7.0 0.00 0.00 0.00 64 1007.1
20260505180433 70 303 4.0 8.0 0.00 0.00 0.00 63 1007.1
20260505180200 69 173 3.0 8.0 0.00 0.00 0.00 64 1007.1
20260505175433 69 59 3.0 7.0 0.00 0.00 0.00 64 1007.2
20260505174930 69 333 3.0 6.0 0.00 0.00 0.00 64 1007.3
20260505174430 69 172 4.0 8.0 0.00 0.00 0.00 65 1007.3
20260505173930 69 182 3.0 8.0 0.00 0.00 0.00 65 1007.3
20260505173654 69 152 3.0 7.0 0.00 0.00 0.00 64 1007.3
20260505172928 69 185 4.0 8.0 0.00 0.00 0.00 64 1007.4
20260505172427 68 179 5.0 8.0 0.00 0.00 0.00 66 1007.4
20260505172150 69 176 4.0 8.0 0.00 0.00 0.00 65 1007.4
20260505171428 69 282 5.0 9.0 0.00 0.00 0.00 64 1007.4
20260505170928 70 182 4.0 9.0 0.00 0.00 0.00 63 1007.4
20260505170428 71 179 3.0 8.0 0.00 0.00 0.00 62 1007.5
20260505165928 71 98 3.0 8.0 0.00 0.00 0.00 61 1007.5
20260505165428 71 163 3.0 8.0 0.00 0.00 0.00 62 1007.5
20260505164928 71 150 4.0 9.0 0.00 0.00 0.00 60 1007.5
20260505164428 70 180 4.0 9.0 0.00 0.00 0.00 62 1007.5
20260505163928 71 181 3.0 7.0 0.00 0.00 0.00 61 1007.6
20260505163425 71 243 3.0 6.0 0.00 0.00 0.00 61 1007.7
20260505162926 71 322 3.0 8.0 0.00 0.00 0.00 61 1007.8
20260505162423 71 324 4.0 9.0 0.00 0.00 0.00 61 1007.9
20260505161922 71 178 4.0 9.0 0.00 0.00 0.00 61 1007.9
20260505161422 71 172 4.0 8.0 0.00 0.00 0.00 60 1007.9
20260505160923 71 140 4.0 8.0 0.00 0.00 0.00 62 1007.9
20260505160423 71 188 4.0 8.0 0.00 0.00 0.00 62 1007.9
20260505153146 70 307 3.0 6.0 0.00 0.00 0.00 62 1008.1
20260505152420 70 151 3.0 7.0 0.00 0.00 0.00 62 1008.2
20260505151918 69 134 3.0 8.0 0.00 0.00 0.00 62 1008.3
20260505151417 69 187 3.0 8.0 0.00 0.00 0.00 64 1008.4
20260505150914 70 324 3.0 6.0 0.00 0.00 0.00 63 1008.4
20260505150415 70 186 3.0 6.0 0.00 0.00 0.00 61 1008.5
20260505140413 69 278 4.0 9.0 0.00 0.00 0.00 61 1008.1